Time,TemperatureF,DewpointF,PressureIn,WindDirection,WindDirectionDegrees,WindSpeedMPH,WindSpeedGustMPH,Humidity,HourlyPrecipIn,Conditions,Clouds,dailyrainin,SolarRadiationWatts/m^2,SoftwareType,DateUTC
2013-01-13 00:02:00,45.7,43.5,30.14,ENE,73,0.0,0.0,89,0.00,,,0.01,0.0,meteohub,2013-01-13 05:02:00,
2013-01-13 00:05:00,45.7,43.5,30.14,ENE,73,0.0,0.0,89,0.00,,,0.01,0.0,meteohub,2013-01-13 05:05:00,
2013-01-13 00:07:00,45.7,43.5,30.14,ENE,73,0.0,2.0,89,0.00,,,0.00,0.0,meteohub,2013-01-13 05:07:00,
2013-01-13 00:12:00,45.7,43.5,30.14,ENE,73,0.0,2.0,89,0.00,,,0.00,0.0,meteohub,2013-01-13 05:12:00,
2013-01-13 00:17:00,45.7,43.5,30.14,ENE,73,0.0,2.0,89,0.00,,,0.00,0.0,meteohub,2013-01-13 05:17:00,
2013-01-13 00:23:00,45.7,43.5,30.13,ENE,73,0.0,0.0,89,0.00,,,0.00,0.0,meteohub,2013-01-13 05:23:00,
2013-01-13 00:29:00,46.0,44.1,30.13,ENE,69,0.0,0.0,90,0.00,,,0.00,0.0,meteohub,2013-01-13 05:29:00,
2013-01-13 00:35:00,46.2,44.2,30.13,ENE,69,0.0,3.0,90,0.00,,,0.00,0.0,meteohub,2013-01-13 05:35:00,
2013-01-13 00:41:00,46.0,43.9,30.13,ENE,69,0.0,2.0,89,0.00,,,0.00,0.0,meteohub,2013-01-13 05:41:00,
2013-01-13 00:47:00,46.0,43.9,30.13,ENE,69,0.0,1.0,89,0.00,,,0.00,0.0,meteohub,2013-01-13 05:47:00,
2013-01-13 00:52:00,46.2,44.2,30.13,ENE,69,0.0,0.0,90,0.00,,,0.00,0.0,meteohub,2013-01-13 05:52:00,
2013-01-13 00:57:00,46.4,44.4,30.13,SSE,167,2.0,0.0,90,0.00,,,0.00,0.0,meteohub,2013-01-13 05:57:00,
2013-01-13 01:02:00,46.4,44.4,30.13,South,189,0.0,5.0,90,0.00,,,0.00,0.0,meteohub,2013-01-13 06:02:00,
2013-01-13 01:07:00,46.6,44.6,30.13,South,189,0.0,5.0,90,0.00,,,0.00,0.0,meteohub,2013-01-13 06:07:00,
2013-01-13 01:12:00,46.6,44.6,30.13,South,189,0.0,5.0,90,0.00,,,0.00,0.0,meteohub,2013-01-13 06:12:00,
2013-01-13 01:17:00,46.8,44.8,30.13,South,189,0.0,0.0,90,0.00,,,0.00,0.0,meteohub,2013-01-13 06:17:00,
2013-01-13 01:24:00,46.8,44.8,30.13,South,189,0.0,0.0,90,0.00,,,0.00,0.0,meteohub,2013-01-13 06:24:00,
2013-01-13 01:30:00,46.6,44.6,30.13,South,189,0.0,0.0,90,0.00,,,0.00,0.0,meteohub,2013-01-13 06:30:00,
2013-01-13 01:36:00,46.4,44.4,30.13,South,189,0.0,0.0,90,0.00,,,0.00,0.0,meteohub,2013-01-13 06:36:00,
2013-01-13 01:42:00,46.2,44.2,30.12,South,189,0.0,0.0,90,0.00,,,0.00,0.0,meteohub,2013-01-13 06:42:00,
2013-01-13 01:47:00,46.2,44.2,30.12,South,189,0.0,0.0,90,0.00,,,0.00,0.0,meteohub,2013-01-13 06:47:00,
2013-01-13 01:52:00,46.4,44.4,30.12,South,189,0.0,0.0,90,0.00,,,0.00,0.0,meteohub,2013-01-13 06:52:00,
2013-01-13 01:57:00,46.4,44.4,30.12,South,189,0.0,0.0,90,0.00,,,0.00,0.0,meteohub,2013-01-13 06:57:00,
2013-01-13 02:02:00,46.4,44.4,30.12,South,189,0.0,0.0,90,0.00,,,0.00,0.0,meteohub,2013-01-13 07:02:00,
2013-01-13 02:07:00,46.6,44.6,30.12,South,189,0.0,0.0,90,0.00,,,0.00,0.0,meteohub,2013-01-13 07:07:00,
2013-01-13 02:13:00,46.6,45.0,30.13,South,189,0.0,0.0,91,0.00,,,0.00,0.0,meteohub,2013-01-13 07:13:00,
2013-01-13 02:19:00,46.4,44.4,30.12,South,189,0.0,0.0,90,0.00,,,0.00,0.0,meteohub,2013-01-13 07:19:00,
2013-01-13 02:25:00,46.4,44.4,30.12,South,189,0.0,0.0,90,0.00,,,0.00,0.0,meteohub,2013-01-13 07:25:00,
2013-01-13 02:31:00,46.4,44.8,30.12,South,189,0.0,0.0,91,0.00,,,0.00,0.0,meteohub,2013-01-13 07:31:00,
2013-01-13 02:37:00,46.6,45.0,30.12,South,189,0.0,0.0,91,0.00,,,0.00,0.0,meteohub,2013-01-13 07:37:00,
2013-01-13 02:42:00,46.6,45.0,30.12,South,189,0.0,0.0,91,0.00,,,0.00,0.0,meteohub,2013-01-13 07:42:00,
2013-01-13 02:47:00,46.8,45.1,30.12,South,189,0.0,0.0,91,0.00,,,0.00,0.0,meteohub,2013-01-13 07:47:00,
2013-01-13 02:52:00,46.8,45.1,30.12,South,189,0.0,0.0,91,0.00,,,0.00,0.0,meteohub,2013-01-13 07:52:00,
2013-01-13 02:57:00,46.8,45.1,30.12,South,189,0.0,0.0,91,0.00,,,0.00,0.0,meteohub,2013-01-13 07:57:00,
2013-01-13 03:02:00,46.8,45.1,30.11,South,189,0.0,0.0,91,0.00,,,0.00,0.0,meteohub,2013-01-13 08:02:00,
2013-01-13 03:07:00,46.8,45.1,30.11,South,189,0.0,0.0,91,0.00,,,0.00,0.0,meteohub,2013-01-13 08:07:00,
2013-01-13 03:12:00,46.6,45.0,30.11,South,189,0.0,0.0,91,0.00,,,0.00,0.0,meteohub,2013-01-13 08:12:00,
2013-01-13 03:17:00,46.6,45.0,30.11,South,189,0.0,0.0,91,0.00,,,0.00,0.0,meteohub,2013-01-13 08:17:00,
2013-01-13 03:22:00,46.8,45.1,30.11,South,189,0.0,0.0,91,0.00,,,0.00,0.0,meteohub,2013-01-13 08:22:00,
2013-01-13 03:27:00,46.8,45.1,30.10,South,189,0.0,0.0,91,0.00,,,0.00,0.0,meteohub,2013-01-13 08:27:00,
2013-01-13 03:32:00,46.8,45.1,30.10,South,189,0.0,0.0,91,0.00,,,0.00,0.0,meteohub,2013-01-13 08:32:00,
2013-01-13 03:37:00,46.6,45.0,30.10,South,189,0.0,0.0,91,0.00,,,0.00,0.0,meteohub,2013-01-13 08:37:00,
2013-01-13 03:42:00,46.6,45.0,30.11,South,189,0.0,0.0,91,0.00,,,0.00,0.0,meteohub,2013-01-13 08:42:00,
2013-01-13 03:47:00,46.6,45.0,30.10,South,189,0.0,0.0,91,0.00,,,0.00,0.0,meteohub,2013-01-13 08:47:00,
2013-01-13 03:52:00,46.6,45.0,30.10,South,189,0.0,0.0,91,0.00,,,0.00,0.0,meteohub,2013-01-13 08:52:00,
2013-01-13 03:57:00,46.6,45.0,30.10,South,189,1.0,0.0,91,0.00,,,0.00,0.0,meteohub,2013-01-13 08:57:00,
2013-01-13 04:02:00,46.6,45.0,30.10,South,189,0.0,1.0,91,0.00,,,0.00,0.0,meteohub,2013-01-13 09:02:00,
2013-01-13 04:07:00,46.8,45.1,30.09,South,189,1.0,1.0,91,0.00,,,0.00,0.0,meteohub,2013-01-13 09:07:00,
2013-01-13 04:12:00,46.8,45.1,30.09,South,189,0.0,1.0,91,0.00,,,0.00,0.0,meteohub,2013-01-13 09:12:00,
2013-01-13 04:17:00,46.6,45.0,30.09,South,189,0.0,1.0,91,0.00,,,0.00,0.0,meteohub,2013-01-13 09:17:00,
2013-01-13 04:22:00,46.6,45.0,30.09,South,189,0.0,1.0,91,0.00,,,0.00,0.0,meteohub,2013-01-13 09:22:00,
2013-01-13 04:27:00,46.8,45.3,30.09,South,189,0.0,2.0,92,0.00,,,0.00,0.0,meteohub,2013-01-13 09:27:00,
2013-01-13 04:32:00,46.8,45.3,30.09,South,189,0.0,2.0,92,0.00,,,0.00,0.0,meteohub,2013-01-13 09:32:00,
2013-01-13 04:37:00,46.8,45.3,30.08,South,189,0.0,2.0,92,0.00,,,0.00,0.0,meteohub,2013-01-13 09:37:00,
2013-01-13 04:42:00,46.8,45.3,30.09,South,189,0.0,0.0,92,0.00,,,0.00,0.0,meteohub,2013-01-13 09:42:00,
2013-01-13 04:47:00,46.9,45.5,30.08,South,189,0.0,2.0,92,0.00,,,0.00,0.0,meteohub,2013-01-13 09:47:00,
2013-01-13 04:52:00,47.1,45.7,30.08,South,189,1.0,2.0,92,0.00,,,0.00,0.0,meteohub,2013-01-13 09:52:00,
2013-01-13 04:57:00,47.3,45.9,30.08,South,189,0.0,3.0,92,0.00,,,0.00,0.0,meteohub,2013-01-13 09:57:00,
2013-01-13 05:02:00,47.5,46.0,30.08,South,189,0.0,3.0,92,0.00,,,0.00,0.0,meteohub,2013-01-13 10:02:00,
2013-01-13 05:07:00,47.5,46.0,30.08,South,189,0.0,3.0,92,0.00,,,0.00,0.0,meteohub,2013-01-13 10:07:00,
2013-01-13 05:12:00,47.5,46.0,30.08,South,189,0.0,3.0,92,0.00,,,0.00,0.0,meteohub,2013-01-13 10:12:00,
2013-01-13 05:17:00,47.5,46.0,30.07,South,189,0.0,2.0,92,0.00,,,0.00,0.0,meteohub,2013-01-13 10:17:00,
2013-01-13 05:22:00,47.5,46.0,30.08,South,189,0.0,2.0,92,0.00,,,0.00,0.0,meteohub,2013-01-13 10:22:00,
2013-01-13 05:27:00,47.5,46.0,30.08,South,189,0.0,2.0,92,0.00,,,0.00,0.0,meteohub,2013-01-13 10:27:00,
2013-01-13 05:32:00,47.5,46.0,30.07,South,189,0.0,1.0,92,0.00,,,0.00,0.0,meteohub,2013-01-13 10:32:00,
2013-01-13 05:37:00,47.5,46.0,30.08,South,189,0.0,0.0,92,0.00,,,0.00,0.0,meteohub,2013-01-13 10:37:00,
2013-01-13 05:42:00,47.5,46.0,30.07,South,189,1.0,0.0,92,0.00,,,0.00,0.0,meteohub,2013-01-13 10:42:00,
2013-01-13 05:47:00,47.7,46.2,30.07,SE,133,1.0,3.0,92,0.00,,,0.00,0.0,meteohub,2013-01-13 10:47:00,
2013-01-13 05:52:00,47.7,46.2,30.08,SE,132,0.0,3.0,92,0.00,,,0.00,0.0,meteohub,2013-01-13 10:52:00,
2013-01-13 05:57:00,47.7,46.2,30.08,SE,136,1.0,3.0,92,0.00,,,0.00,0.0,meteohub,2013-01-13 10:57:00,
2013-01-13 06:02:00,47.7,46.2,30.08,SE,136,0.0,3.0,92,0.00,,,0.00,0.0,meteohub,2013-01-13 11:02:00,
2013-01-13 06:07:00,47.7,46.2,30.07,SE,136,0.0,3.0,92,0.00,,,0.00,0.0,meteohub,2013-01-13 11:07:00,
2013-01-13 06:12:00,47.8,46.4,30.07,SE,136,0.0,3.0,92,0.00,,,0.00,0.0,meteohub,2013-01-13 11:12:00,
2013-01-13 06:17:00,47.8,47.7,30.07,SE,136,0.0,3.0,96,0.00,,,0.00,0.0,meteohub,2013-01-13 11:17:00,
2013-01-13 06:22:00,47.8,47.7,30.08,SE,136,0.0,2.0,96,0.00,,,0.00,0.0,meteohub,2013-01-13 11:22:00,
2013-01-13 06:27:00,47.8,47.7,30.08,SE,136,0.0,2.0,96,0.00,,,0.00,0.0,meteohub,2013-01-13 11:27:00,
2013-01-13 06:32:00,47.8,47.7,30.08,SE,136,0.0,1.0,96,0.00,,,0.00,0.0,meteohub,2013-01-13 11:32:00,
2013-01-13 06:37:00,47.8,47.7,30.08,SE,136,0.0,0.0,96,0.00,,,0.00,0.0,meteohub,2013-01-13 11:37:00,
2013-01-13 06:43:00,47.8,46.4,30.08,SE,136,0.0,0.0,92,0.00,,,0.00,0.0,meteohub,2013-01-13 11:43:00,
2013-01-13 06:49:00,47.8,47.7,30.08,SE,136,0.0,0.0,96,0.01,,,0.01,0.0,meteohub,2013-01-13 11:49:00,
2013-01-13 06:55:00,47.8,46.4,30.08,SE,136,0.0,0.0,92,0.01,,,0.01,0.0,meteohub,2013-01-13 11:55:00,
2013-01-13 07:01:00,48.0,46.6,30.08,SE,136,0.0,0.0,92,0.01,,,0.01,0.0,meteohub,2013-01-13 12:01:00,
2013-01-13 07:07:00,48.0,46.6,30.08,SE,136,0.0,0.0,92,0.01,,,0.01,0.0,meteohub,2013-01-13 12:07:00,
2013-01-13 07:12:00,48.0,46.6,30.08,SE,136,0.0,0.0,92,0.01,,,0.01,0.0,meteohub,2013-01-13 12:12:00,
2013-01-13 07:17:00,48.0,46.6,30.09,SE,136,0.0,2.0,92,0.01,,,0.01,0.0,meteohub,2013-01-13 12:17:00,
2013-01-13 07:22:00,48.0,46.6,30.09,SE,136,0.0,2.0,92,0.01,,,0.01,0.0,meteohub,2013-01-13 12:22:00,
2013-01-13 07:27:00,48.0,46.6,30.09,SE,136,0.0,2.0,92,0.01,,,0.01,0.0,meteohub,2013-01-13 12:27:00,
2013-01-13 07:32:00,48.0,46.6,30.09,SE,136,0.0,0.0,92,0.01,,,0.01,0.0,meteohub,2013-01-13 12:32:00,
2013-01-13 07:37:00,48.0,46.6,30.09,SE,136,0.0,0.0,92,0.01,,,0.01,0.0,meteohub,2013-01-13 12:37:00,
2013-01-13 07:42:00,48.0,46.6,30.09,SE,136,0.0,0.0,92,0.00,,,0.01,0.0,meteohub,2013-01-13 12:42:00,
2013-01-13 07:47:00,47.8,47.7,30.09,SE,136,0.0,0.0,96,0.00,,,0.01,7.0,meteohub,2013-01-13 12:47:00,
2013-01-13 07:52:00,47.8,46.4,30.09,SE,136,1.0,3.0,92,0.00,,,0.01,11.0,meteohub,2013-01-13 12:52:00,
2013-01-13 07:57:00,48.0,46.6,30.09,SE,136,0.0,3.0,92,0.00,,,0.01,14.0,meteohub,2013-01-13 12:57:00,
2013-01-13 08:02:00,48.0,46.6,30.09,SE,136,1.0,3.0,92,0.00,,,0.01,25.0,meteohub,2013-01-13 13:02:00,
2013-01-13 08:08:00,48.2,46.8,30.09,SE,136,1.0,2.0,92,0.00,,,0.01,30.0,meteohub,2013-01-13 13:08:00,
2013-01-13 08:14:00,48.2,46.8,30.10,SE,136,1.0,2.0,92,0.00,,,0.01,39.0,meteohub,2013-01-13 13:14:00,
2013-01-13 08:20:00,48.4,46.9,30.09,SE,136,0.0,2.0,92,0.00,,,0.01,32.0,meteohub,2013-01-13 13:20:00,
2013-01-13 08:26:00,48.6,47.1,30.09,SE,136,0.0,2.0,92,0.00,,,0.01,49.0,meteohub,2013-01-13 13:26:00,
2013-01-13 08:32:00,48.9,47.5,30.10,SE,136,0.0,1.0,92,0.00,,,0.01,46.0,meteohub,2013-01-13 13:32:00,
2013-01-13 08:37:00,49.1,47.7,30.09,SE,136,0.0,2.0,92,0.00,,,0.01,42.0,meteohub,2013-01-13 13:37:00,
2013-01-13 08:42:00,49.1,47.7,30.09,SE,136,2.0,2.0,92,0.00,,,0.01,42.0,meteohub,2013-01-13 13:42:00,
2013-01-13 08:47:00,49.1,47.7,30.09,ESE,114,2.0,3.0,92,0.00,,,0.01,39.0,meteohub,2013-01-13 13:47:00,
2013-01-13 08:54:00,49.3,48.2,30.09,East,100,0.0,3.0,93,0.00,,,0.01,51.0,meteohub,2013-01-13 13:54:00,
2013-01-13 09:00:00,49.3,48.2,30.09,NNE,12,1.0,4.0,93,0.00,,,0.01,65.0,meteohub,2013-01-13 14:00:00,
2013-01-13 09:06:00,49.5,48.4,30.09,ENE,69,2.0,4.0,93,0.00,,,0.01,62.0,meteohub,2013-01-13 14:06:00,
2013-01-13 09:12:00,49.6,48.2,30.10,ENE,69,0.0,3.0,92,0.00,,,0.01,56.0,meteohub,2013-01-13 14:12:00,
2013-01-13 09:17:00,49.8,48.4,30.09,ESE,110,2.0,3.0,92,0.00,,,0.01,60.0,meteohub,2013-01-13 14:17:00,
2013-01-13 09:22:00,50.0,48.9,30.09,East,101,0.0,4.0,93,0.00,,,0.01,72.0,meteohub,2013-01-13 14:22:00,
2013-01-13 09:27:00,50.4,48.9,30.09,East,101,1.0,4.0,92,0.00,,,0.01,69.0,meteohub,2013-01-13 14:27:00,
2013-01-13 09:32:00,50.9,49.8,30.09,ESE,103,2.0,4.0,93,0.00,,,0.01,67.0,meteohub,2013-01-13 14:32:00,
2013-01-13 09:37:00,51.4,50.4,30.10,ESE,113,3.0,4.0,93,0.00,,,0.01,58.0,meteohub,2013-01-13 14:37:00,
2013-01-13 09:42:00,51.3,50.2,30.10,ESE,113,0.0,4.0,93,0.00,,,0.01,56.0,meteohub,2013-01-13 14:42:00,
2013-01-13 09:47:00,51.3,50.2,30.11,ESE,113,2.0,4.0,93,0.00,,,0.01,69.0,meteohub,2013-01-13 14:47:00,
2013-01-13 09:52:00,51.4,50.4,30.11,ESE,113,0.0,4.0,93,0.00,,,0.01,54.0,meteohub,2013-01-13 14:52:00,
2013-01-13 09:57:00,51.8,50.7,30.11,ESE,113,0.0,3.0,93,0.00,,,0.01,62.0,meteohub,2013-01-13 14:57:00,
2013-01-13 10:02:00,52.2,51.1,30.11,ESE,113,0.0,2.0,93,0.00,,,0.01,91.0,meteohub,2013-01-13 15:02:00,
2013-01-13 10:07:00,52.5,51.4,30.11,ESE,113,1.0,3.0,93,0.00,,,0.01,130.0,meteohub,2013-01-13 15:07:00,
2013-01-13 10:12:00,52.7,51.6,30.10,ESE,113,0.0,3.0,93,0.00,,,0.01,188.0,meteohub,2013-01-13 15:12:00,
2013-01-13 10:17:00,53.2,52.2,30.10,ESE,113,1.0,1.0,93,0.00,,,0.01,265.0,meteohub,2013-01-13 15:17:00,
2013-01-13 10:22:00,54.1,53.1,30.09,ESE,113,3.0,3.0,93,0.00,,,0.01,290.0,meteohub,2013-01-13 15:22:00,
2013-01-13 10:27:00,55.2,54.1,30.09,ESE,120,4.0,4.0,93,0.00,,,0.01,221.0,meteohub,2013-01-13 15:27:00,
2013-01-13 10:32:00,56.1,55.0,30.09,SSW,200,6.0,6.0,93,0.00,,,0.01,271.0,meteohub,2013-01-13 15:32:00,
2013-01-13 10:37:00,56.5,55.4,30.10,SSE,168,2.0,10.0,93,0.00,,,0.01,269.0,meteohub,2013-01-13 15:37:00,
2013-01-13 10:42:00,56.7,55.6,30.09,South,188,8.0,10.0,93,0.00,,,0.01,403.0,meteohub,2013-01-13 15:42:00,
2013-01-13 10:49:00,57.2,56.1,30.09,SSE,154,2.0,12.0,93,0.00,,,0.01,397.0,meteohub,2013-01-13 15:49:00,
2013-01-13 10:55:00,57.9,56.8,30.08,SSE,161,4.0,12.0,93,0.00,,,0.01,585.0,meteohub,2013-01-13 15:55:00,
2013-01-13 11:01:00,58.5,57.4,30.07,SSE,150,2.0,10.0,93,0.00,,,0.01,325.0,meteohub,2013-01-13 16:01:00,
2013-01-13 11:07:00,58.8,57.7,30.07,SSW,197,10.0,11.0,93,0.00,,,0.01,675.0,meteohub,2013-01-13 16:07:00,
2013-01-13 11:12:00,59.2,58.1,30.07,SSW,213,4.0,12.0,93,0.00,,,0.01,615.0,meteohub,2013-01-13 16:12:00,
2013-01-13 11:17:00,59.7,58.3,30.07,WSW,242,2.0,12.0,92,0.00,,,0.01,285.0,meteohub,2013-01-13 16:17:00,
2013-01-13 11:22:00,60.1,57.7,30.06,SSW,200,4.0,12.0,89,0.00,,,0.01,489.0,meteohub,2013-01-13 16:22:00,
2013-01-13 11:27:00,60.3,57.0,30.06,SSW,210,3.0,11.0,86,0.00,,,0.01,529.0,meteohub,2013-01-13 16:27:00,
2013-01-13 11:32:00,60.4,57.2,30.06,SSW,210,6.0,14.0,86,0.00,,,0.01,568.0,meteohub,2013-01-13 16:32:00,
2013-01-13 11:37:00,60.6,57.4,30.06,SSW,206,8.0,14.0,86,0.00,,,0.01,320.0,meteohub,2013-01-13 16:37:00,
2013-01-13 11:42:00,60.8,57.2,30.05,South,176,5.0,14.0,85,0.00,,,0.01,631.0,meteohub,2013-01-13 16:42:00,
2013-01-13 11:47:00,61.0,57.4,30.05,SSW,194,4.0,14.0,85,0.00,,,0.01,642.0,meteohub,2013-01-13 16:47:00,
2013-01-13 11:52:00,61.3,57.7,30.05,South,183,10.0,15.0,85,0.00,,,0.01,577.0,meteohub,2013-01-13 16:52:00,
2013-01-13 11:59:00,61.2,57.2,30.04,SSW,213,7.0,15.0,84,0.00,,,0.01,533.0,meteohub,2013-01-13 16:59:00,
2013-01-13 12:05:00,61.2,57.6,30.04,SSW,200,1.0,16.0,85,0.00,,,0.01,555.0,meteohub,2013-01-13 17:05:00,
2013-01-13 12:11:00,61.7,57.7,30.04,South,171,6.0,16.0,84,0.00,,,0.01,508.0,meteohub,2013-01-13 17:11:00,
2013-01-13 12:17:00,61.9,57.9,30.04,SSW,197,2.0,15.0,84,0.00,,,0.01,543.0,meteohub,2013-01-13 17:17:00,
2013-01-13 12:22:00,62.1,57.7,30.04,South,183,11.0,14.0,83,0.00,,,0.01,438.0,meteohub,2013-01-13 17:22:00,
2013-01-13 12:27:00,62.1,57.7,30.04,SW,225,7.0,13.0,83,0.00,,,0.01,367.0,meteohub,2013-01-13 17:27:00,
2013-01-13 12:32:00,62.2,57.9,30.03,SW,236,9.0,12.0,83,0.00,,,0.01,490.0,meteohub,2013-01-13 17:32:00,
2013-01-13 12:37:00,62.6,58.3,30.03,East,91,2.0,12.0,83,0.00,,,0.01,622.0,meteohub,2013-01-13 17:37:00,
2013-01-13 12:42:00,63.3,58.5,30.03,SW,236,6.0,13.0,81,0.00,,,0.01,327.0,meteohub,2013-01-13 17:42:00,
2013-01-13 12:48:00,63.3,58.5,30.02,NNW,337,5.0,13.0,81,0.00,,,0.01,283.0,meteohub,2013-01-13 17:48:00,
2013-01-13 12:54:00,63.1,58.3,30.02,SW,215,6.0,13.0,81,0.00,,,0.01,406.0,meteohub,2013-01-13 17:54:00,
2013-01-13 13:00:00,63.3,58.5,30.02,SSW,209,9.0,14.0,81,0.00,,,0.01,320.0,meteohub,2013-01-13 18:00:00,
2013-01-13 13:06:00,63.7,58.8,30.02,SE,140,5.0,14.0,81,0.00,,,0.01,443.0,meteohub,2013-01-13 18:06:00,
2013-01-13 13:12:00,64.2,59.0,30.01,South,188,6.0,15.0,80,0.00,,,0.01,589.0,meteohub,2013-01-13 18:12:00,
2013-01-13 13:17:00,64.6,59.0,30.01,SSE,152,6.0,15.0,79,0.00,,,0.01,424.0,meteohub,2013-01-13 18:17:00,
2013-01-13 13:24:00,65.5,59.5,30.01,SSW,207,6.0,13.0,78,0.00,,,0.01,503.0,meteohub,2013-01-13 18:24:00,
2013-01-13 13:31:00,65.7,59.4,30.01,SSW,197,5.0,12.0,77,0.00,,,0.01,207.0,meteohub,2013-01-13 18:31:00,
2013-01-13 13:37:00,65.7,59.4,30.01,WNW,287,4.0,12.0,77,0.00,,,0.01,236.0,meteohub,2013-01-13 18:37:00,
2013-01-13 13:42:00,65.5,59.2,30.01,WNW,285,3.0,12.0,77,0.00,,,0.01,220.0,meteohub,2013-01-13 18:42:00,
2013-01-13 13:47:00,65.5,59.2,30.01,South,170,1.0,9.0,77,0.00,,,0.01,211.0,meteohub,2013-01-13 18:47:00,
2013-01-13 13:52:00,65.5,59.2,30.01,SSE,163,4.0,12.0,77,0.00,,,0.01,230.0,meteohub,2013-01-13 18:52:00,
2013-01-13 13:57:00,65.5,59.2,30.01,NW,321,5.0,12.0,77,0.00,,,0.01,258.0,meteohub,2013-01-13 18:57:00,
2013-01-13 14:02:00,65.8,59.5,30.01,South,171,2.0,12.0,77,0.00,,,0.01,438.0,meteohub,2013-01-13 19:02:00,
2013-01-13 14:07:00,66.4,59.7,30.01,South,188,2.0,10.0,76,0.00,,,0.01,348.0,meteohub,2013-01-13 19:07:00,
2013-01-13 14:12:00,66.9,59.9,30.00,SSW,209,7.0,12.0,75,0.00,,,0.01,369.0,meteohub,2013-01-13 19:12:00,
2013-01-13 14:17:00,67.1,59.7,30.00,NNE,19,2.0,12.0,74,0.00,,,0.01,267.0,meteohub,2013-01-13 19:17:00,
2013-01-13 14:22:00,67.3,59.9,30.00,SSE,167,1.0,11.0,74,0.00,,,0.01,229.0,meteohub,2013-01-13 19:22:00,
2013-01-13 14:27:00,67.6,59.7,30.01,SSE,162,4.0,15.0,73,0.00,,,0.01,443.0,meteohub,2013-01-13 19:27:00,
2013-01-13 14:32:00,68.0,60.1,30.00,South,173,6.0,15.0,73,0.00,,,0.01,436.0,meteohub,2013-01-13 19:32:00,
2013-01-13 14:37:00,68.2,59.9,30.00,South,182,5.0,15.0,72,0.00,,,0.01,397.0,meteohub,2013-01-13 19:37:00,
2013-01-13 14:42:00,68.2,59.9,30.01,South,173,3.0,14.0,72,0.00,,,0.01,276.0,meteohub,2013-01-13 19:42:00,
2013-01-13 14:47:00,68.4,60.1,30.01,South,189,5.0,14.0,72,0.00,,,0.01,388.0,meteohub,2013-01-13 19:47:00,
2013-01-13 14:52:00,68.9,60.3,30.01,South,176,5.0,13.0,71,0.00,,,0.01,288.0,meteohub,2013-01-13 19:52:00,
2013-01-13 14:57:00,69.1,60.4,30.01,South,174,5.0,13.0,71,0.00,,,0.01,250.0,meteohub,2013-01-13 19:57:00,
2013-01-13 15:02:00,68.9,60.3,30.01,SE,142,7.0,13.0,71,0.00,,,0.01,325.0,meteohub,2013-01-13 20:02:00,
2013-01-13 15:07:00,69.1,60.4,30.01,NW,306,0.0,12.0,71,0.00,,,0.01,207.0,meteohub,2013-01-13 20:07:00,
2013-01-13 15:12:00,69.1,60.4,30.01,SSE,167,4.0,12.0,71,0.00,,,0.01,200.0,meteohub,2013-01-13 20:12:00,
2013-01-13 15:17:00,69.3,60.6,30.01,WSW,238,4.0,7.0,71,0.00,,,0.01,214.0,meteohub,2013-01-13 20:17:00,
2013-01-13 15:22:00,69.3,60.6,30.01,NW,315,5.0,7.0,71,0.00,,,0.01,172.0,meteohub,2013-01-13 20:22:00,
2013-01-13 15:27:00,69.3,60.6,30.02,West,270,1.0,6.0,71,0.00,,,0.01,121.0,meteohub,2013-01-13 20:27:00,
2013-01-13 15:32:00,69.3,60.3,30.02,South,173,1.0,6.0,70,0.00,,,0.01,127.0,meteohub,2013-01-13 20:32:00,
2013-01-13 15:37:00,69.3,60.6,30.02,South,170,5.0,7.0,71,0.00,,,0.01,100.0,meteohub,2013-01-13 20:37:00,
2013-01-13 15:42:00,69.1,60.4,30.02,SSW,205,2.0,7.0,71,0.00,,,0.01,102.0,meteohub,2013-01-13 20:42:00,
2013-01-13 15:47:00,69.1,60.4,30.02,South,177,1.0,7.0,71,0.00,,,0.01,160.0,meteohub,2013-01-13 20:47:00,
2013-01-13 15:52:00,69.1,60.4,30.02,SW,229,0.0,6.0,71,0.00,,,0.01,176.0,meteohub,2013-01-13 20:52:00,
2013-01-13 15:57:00,69.1,60.4,30.02,SSE,158,3.0,6.0,71,0.00,,,0.01,114.0,meteohub,2013-01-13 20:57:00,
2013-01-13 16:02:00,69.1,60.4,30.01,SE,133,0.0,6.0,71,0.00,,,0.01,74.0,meteohub,2013-01-13 21:02:00,
2013-01-13 16:07:00,69.1,60.4,30.02,SE,134,0.0,7.0,71,0.00,,,0.01,67.0,meteohub,2013-01-13 21:07:00,
2013-01-13 16:12:00,69.1,60.4,30.01,SE,134,2.0,7.0,71,0.00,,,0.01,47.0,meteohub,2013-01-13 21:12:00,
2013-01-13 16:17:00,68.9,60.6,30.01,SSE,156,0.0,5.0,72,0.00,,,0.01,42.0,meteohub,2013-01-13 21:17:00,
2013-01-13 16:24:00,68.7,60.4,30.01,SSE,156,0.0,5.0,72,0.00,,,0.01,44.0,meteohub,2013-01-13 21:24:00,
2013-01-13 16:30:00,68.5,60.3,30.02,South,169,0.0,5.0,72,0.00,,,0.01,56.0,meteohub,2013-01-13 21:30:00,
2013-01-13 16:36:00,68.4,60.1,30.02,SSE,161,1.0,4.0,72,0.00,,,0.01,58.0,meteohub,2013-01-13 21:36:00,
2013-01-13 16:42:00,68.2,60.3,30.02,SSE,161,0.0,5.0,73,0.00,,,0.01,47.0,meteohub,2013-01-13 21:42:00,
2013-01-13 16:47:00,68.0,60.1,30.02,SSE,161,0.0,5.0,73,0.00,,,0.01,28.0,meteohub,2013-01-13 21:47:00,
2013-01-13 16:52:00,67.5,59.9,30.02,East,91,2.0,3.0,74,0.00,,,0.01,18.0,meteohub,2013-01-13 21:52:00,
2013-01-13 16:57:00,67.1,60.1,30.02,East,91,0.0,3.0,75,0.00,,,0.01,19.0,meteohub,2013-01-13 21:57:00,
2013-01-13 17:02:00,66.6,59.5,30.02,East,91,0.0,3.0,75,0.00,,,0.01,23.0,meteohub,2013-01-13 22:02:00,
2013-01-13 17:07:00,65.8,59.2,30.03,East,91,0.0,3.0,76,0.00,,,0.01,21.0,meteohub,2013-01-13 22:07:00,
2013-01-13 17:12:00,65.3,59.0,30.02,East,91,0.0,1.0,77,0.00,,,0.01,5.0,meteohub,2013-01-13 22:12:00,
2013-01-13 17:17:00,64.8,58.8,30.02,East,91,0.0,1.0,78,0.00,,,0.01,0.0,meteohub,2013-01-13 22:17:00,
2013-01-13 17:22:00,64.4,58.8,30.02,East,91,0.0,0.0,79,0.00,,,0.01,0.0,meteohub,2013-01-13 22:22:00,
2013-01-13 17:27:00,63.9,58.3,30.02,East,91,0.0,0.0,79,0.00,,,0.01,0.0,meteohub,2013-01-13 22:27:00,
2013-01-13 17:32:00,63.3,57.7,30.02,East,91,0.0,0.0,79,0.00,,,0.01,0.0,meteohub,2013-01-13 22:32:00,
2013-01-13 17:37:00,62.8,57.6,30.03,East,91,0.0,0.0,80,0.00,,,0.01,0.0,meteohub,2013-01-13 22:37:00,
2013-01-13 17:42:00,62.2,57.4,30.02,East,91,0.0,0.0,81,0.00,,,0.01,0.0,meteohub,2013-01-13 22:42:00,
2013-01-13 17:47:00,61.9,57.4,30.02,East,91,0.0,0.0,82,0.00,,,0.01,0.0,meteohub,2013-01-13 22:47:00,
2013-01-13 17:52:00,61.3,56.5,30.02,East,91,0.0,0.0,81,0.00,,,0.01,0.0,meteohub,2013-01-13 22:52:00,
2013-01-13 17:57:00,60.6,56.5,30.02,East,91,0.0,0.0,83,0.00,,,0.01,0.0,meteohub,2013-01-13 22:57:00,
2013-01-13 18:02:00,60.3,56.3,30.02,East,91,0.0,2.0,84,0.00,,,0.01,0.0,meteohub,2013-01-13 23:02:00,
2013-01-13 18:07:00,59.9,55.9,30.02,East,91,0.0,2.0,84,0.00,,,0.01,0.0,meteohub,2013-01-13 23:07:00,
2013-01-13 18:12:00,59.5,55.6,30.02,East,91,0.0,1.0,84,0.00,,,0.01,0.0,meteohub,2013-01-13 23:12:00,
2013-01-13 18:19:00,59.0,55.4,30.02,East,91,0.0,0.0,85,0.00,,,0.01,0.0,meteohub,2013-01-13 23:19:00,
2013-01-13 18:25:00,58.8,55.6,30.02,East,91,0.0,0.0,86,0.00,,,0.01,0.0,meteohub,2013-01-13 23:25:00,
2013-01-13 18:31:00,58.5,55.2,30.02,East,91,0.0,0.0,86,0.00,,,0.01,0.0,meteohub,2013-01-13 23:31:00,
2013-01-13 18:37:00,57.9,54.3,30.02,East,91,0.0,0.0,85,0.00,,,0.01,0.0,meteohub,2013-01-13 23:37:00,
2013-01-13 18:43:00,57.6,54.3,30.02,East,91,0.0,0.0,86,0.00,,,0.01,0.0,meteohub,2013-01-13 23:43:00,
2013-01-13 18:52:00,57.0,53.8,30.02,East,91,0.0,2.0,86,0.00,,,0.01,0.0,meteohub,2013-01-13 23:52:00,
2013-01-13 18:58:00,56.5,53.6,30.02,East,91,0.0,2.0,87,0.00,,,0.01,0.0,meteohub,2013-01-13 23:58:00,
2013-01-13 19:05:00,56.3,53.4,30.02,East,91,0.0,0.0,87,0.00,,,0.01,0.0,meteohub,2013-01-14 00:05:00,
2013-01-13 19:11:00,55.9,53.1,30.02,East,91,0.0,0.0,87,0.00,,,0.01,0.0,meteohub,2013-01-14 00:11:00,
2013-01-13 19:17:00,55.6,52.7,30.02,East,91,0.0,1.0,87,0.00,,,0.01,0.0,meteohub,2013-01-14 00:17:00,
2013-01-13 19:22:00,55.4,52.9,30.02,East,91,0.0,2.0,88,0.00,,,0.01,0.0,meteohub,2013-01-14 00:22:00,
2013-01-13 19:29:00,55.0,52.5,30.01,East,91,0.0,2.0,88,0.00,,,0.01,0.0,meteohub,2013-01-14 00:29:00,
2013-01-13 19:35:00,54.7,52.2,30.01,East,91,0.0,1.0,88,0.00,,,0.01,0.0,meteohub,2013-01-14 00:35:00,
2013-01-13 19:41:00,54.5,52.0,30.01,East,91,0.0,2.0,88,0.00,,,0.01,0.0,meteohub,2013-01-14 00:41:00,
2013-01-13 19:47:00,54.3,51.8,30.01,East,91,0.0,2.0,88,0.00,,,0.01,0.0,meteohub,2013-01-14 00:47:00,
2013-01-13 19:52:00,54.3,52.0,30.01,East,91,0.0,2.0,89,0.00,,,0.01,0.0,meteohub,2013-01-14 00:52:00,
2013-01-13 19:57:00,54.0,51.6,30.01,East,91,0.0,2.0,89,0.00,,,0.01,0.0,meteohub,2013-01-14 00:57:00,
2013-01-13 20:02:00,54.0,51.6,30.01,East,91,0.0,2.0,89,0.00,,,0.01,0.0,meteohub,2013-01-14 01:02:00,
2013-01-13 20:08:00,54.0,52.0,30.01,East,91,0.0,1.0,90,0.00,,,0.01,0.0,meteohub,2013-01-14 01:08:00,
2013-01-13 20:14:00,54.0,51.6,30.01,East,91,0.0,1.0,89,0.00,,,0.01,0.0,meteohub,2013-01-14 01:14:00,
2013-01-13 20:21:00,54.0,52.0,30.01,East,91,0.0,1.0,90,0.00,,,0.01,0.0,meteohub,2013-01-14 01:21:00,
2013-01-13 20:27:00,54.1,52.2,30.01,East,91,0.0,2.0,90,0.00,,,0.01,0.0,meteohub,2013-01-14 01:27:00,
2013-01-13 20:32:00,54.3,52.3,30.01,East,91,1.0,2.0,90,0.00,,,0.01,0.0,meteohub,2013-01-14 01:32:00,
2013-01-13 20:37:00,54.5,52.9,30.00,East,91,1.0,2.0,91,0.00,,,0.01,0.0,meteohub,2013-01-14 01:37:00,
2013-01-13 20:42:00,54.7,53.1,30.00,ESE,109,0.0,3.0,91,0.00,,,0.01,0.0,meteohub,2013-01-14 01:42:00,
2013-01-13 20:47:00,54.9,53.2,30.00,ESE,109,0.0,3.0,91,0.00,,,0.01,0.0,meteohub,2013-01-14 01:47:00,
2013-01-13 20:52:00,55.0,53.4,30.01,ESE,109,1.0,3.0,91,0.00,,,0.01,0.0,meteohub,2013-01-14 01:52:00,
2013-01-13 20:57:00,55.2,53.2,30.01,ESE,109,0.0,3.0,90,0.00,,,0.01,0.0,meteohub,2013-01-14 01:57:00,
2013-01-13 21:02:00,55.6,54.0,30.00,ESE,109,2.0,3.0,91,0.00,,,0.01,0.0,meteohub,2013-01-14 02:02:00,
2013-01-13 21:07:00,56.1,54.5,30.00,ESE,109,0.0,3.0,91,0.00,,,0.01,0.0,meteohub,2013-01-14 02:07:00,
2013-01-13 21:12:00,56.5,54.9,30.00,ESE,109,2.0,3.0,91,0.00,,,0.01,0.0,meteohub,2013-01-14 02:12:00,
2013-01-13 21:18:00,57.2,55.4,29.99,ESE,109,0.0,3.0,91,0.00,,,0.01,0.0,meteohub,2013-01-14 02:18:00,
2013-01-13 21:24:00,57.4,55.0,29.99,ESE,109,0.0,3.0,89,0.00,,,0.01,0.0,meteohub,2013-01-14 02:24:00,
2013-01-13 21:30:00,57.6,55.2,29.99,ESE,109,0.0,3.0,89,0.00,,,0.01,0.0,meteohub,2013-01-14 02:30:00,
2013-01-13 21:36:00,57.4,54.1,29.99,SE,135,3.0,4.0,86,0.00,,,0.01,0.0,meteohub,2013-01-14 02:36:00,
2013-01-13 21:42:00,57.6,54.9,29.99,ENE,69,1.0,5.0,88,0.00,,,0.01,0.0,meteohub,2013-01-14 02:42:00,
2013-01-13 21:47:00,57.9,55.6,29.99,NNW,343,0.0,5.0,89,0.00,,,0.01,0.0,meteohub,2013-01-14 02:47:00,
2013-01-13 21:52:00,59.2,56.8,29.99,East,80,3.0,6.0,89,0.00,,,0.01,0.0,meteohub,2013-01-14 02:52:00,
2013-01-13 21:57:00,60.8,57.6,29.99,ESE,115,1.0,6.0,86,0.00,,,0.01,0.0,meteohub,2013-01-14 02:57:00,
2013-01-13 22:04:00,61.5,57.6,30.00,NE,44,2.0,7.0,84,0.00,,,0.01,0.0,meteohub,2013-01-14 03:04:00,
2013-01-13 22:10:00,61.5,57.2,30.00,ENE,71,3.0,7.0,83,0.00,,,0.01,0.0,meteohub,2013-01-14 03:10:00,
2013-01-13 22:16:00,61.5,57.0,30.00,ENE,70,3.0,4.0,82,0.00,,,0.01,0.0,meteohub,2013-01-14 03:16:00,
2013-01-13 22:22:00,61.5,57.2,30.00,North,5,0.0,6.0,83,0.00,,,0.01,0.0,meteohub,2013-01-14 03:22:00,
2013-01-13 22:27:00,61.9,57.4,30.00,NNE,17,2.0,6.0,82,0.00,,,0.01,0.0,meteohub,2013-01-14 03:27:00,
2013-01-13 22:32:00,61.7,56.8,30.00,NNE,25,0.0,6.0,81,0.00,,,0.01,0.0,meteohub,2013-01-14 03:32:00,
2013-01-13 22:37:00,61.9,57.4,30.00,ESE,114,3.0,5.0,82,0.00,,,0.01,0.0,meteohub,2013-01-14 03:37:00,
2013-01-13 22:42:00,62.1,57.6,30.00,NE,36,2.0,5.0,82,0.00,,,0.01,0.0,meteohub,2013-01-14 03:42:00,
2013-01-13 22:47:00,62.2,57.7,30.00,ESE,112,1.0,4.0,82,0.00,,,0.01,0.0,meteohub,2013-01-14 03:47:00,
2013-01-13 22:52:00,62.6,58.1,29.99,East,92,4.0,4.0,82,0.00,,,0.01,0.0,meteohub,2013-01-14 03:52:00,
2013-01-13 22:57:00,62.6,57.7,30.00,East,92,2.0,4.0,81,0.00,,,0.01,0.0,meteohub,2013-01-14 03:57:00,
2013-01-13 23:02:00,62.4,57.9,30.00,ESE,102,2.0,4.0,82,0.00,,,0.01,0.0,meteohub,2013-01-14 04:02:00,
2013-01-13 23:07:00,62.4,57.2,30.00,ESE,102,2.0,4.0,80,0.00,,,0.01,0.0,meteohub,2013-01-14 04:07:00,
2013-01-13 23:12:00,61.7,56.8,30.00,SSE,155,0.0,3.0,81,0.00,,,0.01,0.0,meteohub,2013-01-14 04:12:00,
2013-01-13 23:17:00,61.2,56.3,30.00,SE,146,1.0,5.0,81,0.00,,,0.01,0.0,meteohub,2013-01-14 04:17:00,
2013-01-13 23:22:00,61.2,57.2,30.01,ENE,65,0.0,5.0,84,0.00,,,0.01,0.0,meteohub,2013-01-14 04:22:00,
2013-01-13 23:27:00,61.3,57.0,30.00,ENE,71,0.0,4.0,83,0.00,,,0.01,0.0,meteohub,2013-01-14 04:27:00,
2013-01-13 23:32:00,61.0,56.8,30.01,ENE,71,2.0,4.0,83,0.00,,,0.01,0.0,meteohub,2013-01-14 04:32:00,
2013-01-13 23:37:00,61.2,57.2,30.01,East,97,3.0,4.0,84,0.00,,,0.01,0.0,meteohub,2013-01-14 04:37:00,
2013-01-13 23:42:00,61.2,57.0,30.01,East,97,0.0,4.0,83,0.00,,,0.01,0.0,meteohub,2013-01-14 04:42:00,
2013-01-13 23:47:00,61.3,57.0,30.01,East,97,0.0,4.0,83,0.00,,,0.01,0.0,meteohub,2013-01-14 04:47:00,
2013-01-13 23:52:00,61.5,57.2,30.01,ESE,119,1.0,4.0,83,0.00,,,0.01,0.0,meteohub,2013-01-14 04:52:00,
2013-01-13 23:57:00,61.7,57.7,30.01,SE,137,0.0,3.0,84,0.00,,,0.01,0.0,meteohub,2013-01-14 04:57:00,